CW8897 Weather Reports


time (UTC)temp
C
wind
direction
speed
KPH
gust
KPH
rain 1hr
cm
rain 24hr
cm
rain mn
cm
humidity
%
barometer
mb
20260906221532 24 98 0.0 22.5 0.00 0.00 0.00 29 1026.9
20260906220037 25 205 8.0 22.5 0.00 0.00 0.00 28 1027.0
20260906214536 25 1.6 8.0 0.00 0.00 0.00 30 1027.2
20260906213007 23 240 4.8 24.1 0.00 0.00 0.00 29 1027.7
20260906211536 24 226 9.7 16.1 0.00 0.00 0.00 29 1027.9
20260906210003 23 191 11.3 19.3 0.00 0.00 0.00 28 1028.3
20260906204524 23 256 9.7 16.1 0.00 0.00 0.00 30 1028.2
20260906203006 24 267 8.0 17.7 0.00 0.00 0.00 30 1028.3
20260906201538 23 146 6.4 12.9 0.00 0.00 0.00 32 1028.5
20260906200014 23 233 11.3 22.5 0.00 0.00 0.00 34 1028.8
20260906194503 23 231 12.9 22.5 0.00 0.00 0.00 34 1028.8
20260906193004 23 150 8.0 20.9 0.00 0.00 0.00 34 1028.9
20260906191507 22 115 9.7 22.5 0.00 0.00 0.00 35 1029.1
20260906190035 22 203 6.4 27.4 0.00 0.00 0.00 35 1029.3
20260906184534 22 264 11.3 24.1 0.00 0.00 0.00 35 1029.9
20260906183007 22 240 6.4 17.7 0.00 0.00 0.00 34 1029.9
20260906181534 21 209 3.2 16.1 0.00 0.00 0.00 36 1030.0
20260906180037 21 210 4.8 12.9 0.00 0.00 0.00 36 1030.3
20260906174516 21 187 6.4 14.5 0.00 0.00 0.00 36 1030.6
20260906173018 21 206 11.3 17.7 0.00 0.00 0.00 37 1030.6
20260906171503 20 202 11.3 14.5 0.00 0.00 0.00 38 1030.7
20260906170034 20 242 8.0 17.7 0.00 0.00 0.00 38 1030.9
20260906164510 20 221 4.8 14.5 0.00 0.00 0.00 39 1031.0
20260906163020 20 226 8.0 12.9 0.00 0.00 0.00 39 1030.9
20260906161525 19 289 4.8 14.5 0.00 0.00 0.00 38 1030.9
20260906160030 19 272 6.4 19.3 0.00 0.00 0.00 38 1031.0
20260906154512 18 170 3.2 8.0 0.00 0.00 0.00 47 1030.9
20260906153035 16 202 0.0 3.2 0.00 0.00 0.00 57 1030.9
20260906151503 14 198 0.0 0.0 0.00 0.00 0.00 63 1031.1
20260906150004 12 248 0.0 0.0 0.00 0.00 0.00 67 1031.1
20260906144508 10 186 0.0 0.0 0.00 0.00 0.00 74 1031.2
20260906143010 8 222 0.0 1.6 0.00 0.00 0.00 79 1031.2
20260906141516 7 82 0.0 1.6 0.00 0.00 0.00 83 1031.1
20260906140005 6 82 0.0 1.6 0.00 0.00 0.00 86 1031.3
20260906134509 5 82 0.0 0.0 0.00 0.00 0.00 90 1031.1
20260906133010 3 82 0.0 0.0 0.00 0.00 0.00 91 1031.2
20260906131514 3 82 0.0 0.0 0.00 0.00 0.00 91 1031.2
20260906130003 3 82 0.0 0.0 0.00 0.00 0.00 90 1030.9
20260906124504 3 82 0.0 0.0 0.00 0.00 0.00 91 1030.7
20260906123009 3 82 0.0 0.0 0.00 0.00 0.00 89 1030.7
20260906121511 4 82 0.0 0.0 0.00 0.00 0.00 89 1030.7
20260906120017 4 82 0.0 0.0 0.00 0.00 0.00 89 1030.8
20260906114508 4 82 0.0 0.0 0.00 0.00 0.00 89 1031.1
20260906113004 4 82 0.0 0.0 0.00 0.00 0.00 89 1031.1
20260906111508 4 82 0.0 0.0 0.00 0.00 0.00 88 1031.0
20260906110012 4 82 0.0 0.0 0.00 0.00 0.00 89 1030.9
20260906104525 3 82 0.0 0.0 0.00 0.00 0.00 89 1031.0
20260906103033 3 82 0.0 0.0 0.00 0.00 0.00 89 1030.9
20260906101507 3 82 0.0 0.0 0.00 0.00 0.00 88 1030.8
20260906100011 4 82 0.0 0.0 0.00 0.00 0.00 88 1030.8
20260906094514 4 82 0.0 0.0 0.00 0.00 0.00 88 1030.7
20260906093024 4 82 0.0 0.0 0.00 0.00 0.00 88 1030.8
20260906091528 4 82 0.0 0.0 0.00 0.00 0.00 87 1030.7
20260906090008 4 82 0.0 0.0 0.00 0.00 0.00 86 1030.6
20260906084503 5 82 0.0 0.0 0.00 0.00 0.00 86 1030.4
20260906083004 5 82 0.0 0.0 0.00 0.00 0.00 85 1030.4
20260906081503 5 82 0.0 0.0 0.00 0.00 0.00 85 1030.6
20260906080003 5 82 0.0 0.0 0.00 0.00 0.00 85 1030.7
20260906074504 5 82 0.0 0.0 0.00 0.00 0.00 85 1030.7
20260906073002 6 82 0.0 0.0 0.00 0.00 0.00 84 1030.7
20260906071503 6 82 0.0 0.0 0.00 0.00 0.00 83 1030.7
20260906070004 6 82 0.0 0.0 0.00 0.00 0.00 83 1030.7
20260906064504 6 82 0.0 0.0 0.00 0.00 0.00 82 1030.7
20260906063004 7 82 0.0 3.2 0.00 0.00 0.00 81 1030.6
20260906061504 7 82 0.0 0.0 0.00 0.00 0.00 80 1030.7
20260906060006 8 82 0.0 0.0 0.00 0.00 0.00 79 1030.7
20260906054505 8 82 0.0 0.0 0.00 0.00 0.00 77 1030.7
20260906053006 8 82 0.0 0.0 0.00 0.00 0.00 76 1030.8
20260906051507 10 82 0.0 0.0 0.00 0.00 0.00 75 1030.9
20260906050006 10 82 0.0 0.0 0.00 0.00 0.00 74 1030.9
20260906044504 10 82 0.0 0.0 0.00 0.00 0.00 73 1030.9
20260906043008 10 82 0.0 0.0 0.00 0.00 0.00 73 1031.1
20260906041508 10 82 0.0 0.0 0.00 0.00 0.00 73 1031.0
20260906040009 10 82 0.0 0.0 0.00 0.00 0.00 71 1030.8
20260906034511 11 23 0.0 3.2 0.00 0.00 0.00 69 1030.9
20260906033006 11 1 0.0 0.0 0.00 0.00 0.00 68 1031.0
20260906031505 12 26 0.0 0.0 0.00 0.00 0.00 67 1030.8
20260906030008 12 11 0.0 0.0 0.00 0.00 0.00 67 1030.8
20260906024510 12 78 0.0 0.0 0.00 0.00 0.00 65 1030.6
20260906023018 13 103 0.0 0.0 0.00 0.00 0.00 63 1030.4
20260906021514 13 103 0.0 0.0 0.00 0.00 0.00 61 1030.2
20260906020001 15 102 0.0 1.6 0.00 0.00 0.00 57 1030.1
20260906014520 17 336 0.0 3.2 0.00 0.00 0.00 50 1030.1
20260906013017 18 205 0.0 3.2 0.00 0.00 0.00 1030.1
20260906011520 18 147 1.6 8.0 0.00 0.00 0.00 44 1030.1
20260906010014 20 68 3.2 11.3 0.00 0.00 0.00 42 1030.1
20260906004518 20 135 3.2 9.7 0.00 0.00 0.00 1030.1
20260906003003 20 117 1.6 12.9 0.00 0.00 0.00 40 1030.1
20260906001503 22 107 4.8 9.7 0.00 0.00 0.00 35 1030.0
20260906000022 -17 0.0 0.0 0.00 0.00 0.00 1029.9
20260905234520 -17 0.0 0.0 0.00 0.00 0.00 1029.8
20260905233027 -17 0.0 0.0 0.00 0.00 0.00 1029.8
20260905231520 -17 0.0 0.0 0.00 0.00 0.00 1029.6
20260905230019 -17 0.0 0.0 0.00 0.00 0.00 1029.7
20260905224522 -17 0.0 0.0 0.00 0.00 0.00 1029.7
20260905223025 -17 0.0 0.0 0.00 0.00 0.00 1029.6